TimeEST,TemperatureF,Dew PointF,Humidity,Sea Level PressureIn,VisibilityMPH,Wind Direction,Wind SpeedMPH,Gust SpeedMPH,PrecipitationIn,Events,Conditions,WindDirDegrees,DateUTC
12:14 AM,35.1,29.8,81,30.21,10.0,NW,3.5,-,N/A,,Overcast,320,2013-03-07 05:14:00
12:35 AM,35.1,30.0,82,30.21,10.0,Calm,Calm,-,N/A,,Overcast,0,2013-03-07 05:35:00
12:54 AM,34.9,30.0,82,30.21,10.0,NW,4.6,-,N/A,,Overcast,310,2013-03-07 05:54:00
1:15 AM,34.7,30.0,83,30.22,10.0,Calm,Calm,-,N/A,,Overcast,0,2013-03-07 06:15:00
1:34 AM,34.7,30.0,83,30.22,10.0,Calm,Calm,-,N/A,,Overcast,0,2013-03-07 06:34:00
1:54 AM,34.5,29.8,83,30.22,10.0,Calm,Calm,-,N/A,,Overcast,0,2013-03-07 06:54:00
2:14 AM,34.7,30.2,84,30.22,10.0,Calm,Calm,-,N/A,,Overcast,0,2013-03-07 07:14:00
2:34 AM,34.7,30.0,83,30.22,10.0,NW,4.6,-,N/A,,Overcast,310,2013-03-07 07:34:00
2:54 AM,34.5,30.0,84,30.22,10.0,Calm,Calm,-,N/A,,Overcast,0,2013-03-07 07:54:00
3:14 AM,34.3,29.8,84,30.21,10.0,WNW,3.5,-,N/A,,Overcast,290,2013-03-07 08:14:00
3:34 AM,34.2,29.8,84,30.22,10.0,WNW,3.5,-,N/A,,Overcast,300,2013-03-07 08:34:00
3:54 AM,34.0,29.7,84,30.22,10.0,NW,3.5,-,N/A,,Overcast,310,2013-03-07 08:54:00
4:14 AM,34.0,29.3,83,30.22,10.0,Calm,Calm,-,N/A,,Overcast,0,2013-03-07 09:14:00
4:34 AM,34.0,29.3,83,30.23,10.0,Calm,Calm,-,N/A,,Overcast,0,2013-03-07 09:34:00
4:55 AM,33.8,29.1,83,30.23,10.0,Calm,Calm,-,N/A,,Overcast,0,2013-03-07 09:55:00
5:14 AM,33.8,28.9,82,30.24,10.0,Calm,Calm,-,N/A,,Overcast,0,2013-03-07 10:14:00
5:34 AM,33.4,28.9,84,30.24,10.0,NW,3.5,-,N/A,,Overcast,310,2013-03-07 10:34:00
5:55 AM,32.7,28.4,84,30.25,10.0,Calm,Calm,-,N/A,,Scattered Clouds,0,2013-03-07 10:55:00
6:14 AM,32.7,28.8,85,30.25,10.0,Calm,Calm,-,N/A,,Mostly Cloudy,0,2013-03-07 11:14:00
6:34 AM,32.5,28.8,86,30.26,10.0,Calm,Calm,-,N/A,,Overcast,0,2013-03-07 11:34:00
6:54 AM,32.5,28.8,86,30.26,10.0,Calm,Calm,-,N/A,,Overcast,0,2013-03-07 11:54:00
7:14 AM,32.9,28.9,85,30.27,10.0,NNW,3.5,-,N/A,,Overcast,330,2013-03-07 12:14:00
7:35 AM,33.1,29.3,86,30.27,7.0,Calm,Calm,-,N/A,,Overcast,0,2013-03-07 12:35:00
7:54 AM,33.3,29.3,85,30.28,7.0,NW,4.6,-,N/A,,Overcast,320,2013-03-07 12:54:00
8:14 AM,33.8,29.8,85,30.28,5.0,NNW,5.8,-,N/A,Snow,Light Snow,330,2013-03-07 13:14:00
8:34 AM,34.0,30.0,85,30.29,7.0,NW,3.5,-,N/A,,Overcast,320,2013-03-07 13:34:00
8:54 AM,34.3,30.2,85,30.30,7.0,NW,5.8,-,N/A,,Overcast,320,2013-03-07 13:54:00
9:15 AM,34.3,30.6,86,30.30,7.0,NNW,8.1,-,N/A,,Overcast,330,2013-03-07 14:15:00
9:34 AM,34.9,30.7,85,30.31,10.0,NW,8.1,-,N/A,,Overcast,310,2013-03-07 14:34:00
9:54 AM,35.1,30.4,83,30.31,10.0,NW,5.8,-,N/A,,Overcast,310,2013-03-07 14:54:00
10:14 AM,35.2,30.4,82,30.32,10.0,NNW,8.1,-,N/A,,Overcast,340,2013-03-07 15:14:00
10:34 AM,35.1,30.4,83,30.32,10.0,NNW,6.9,-,N/A,,Overcast,330,2013-03-07 15:34:00
10:55 AM,34.9,30.2,83,30.32,10.0,NW,5.8,-,N/A,,Overcast,320,2013-03-07 15:55:00
11:14 AM,34.9,30.0,82,30.33,10.0,NNW,9.2,-,N/A,,Overcast,340,2013-03-07 16:14:00
11:35 AM,34.7,29.3,81,30.33,10.0,NNW,5.8,-,N/A,,Overcast,340,2013-03-07 16:35:00
11:54 AM,35.1,29.1,79,30.33,10.0,WNW,9.2,-,N/A,,Overcast,300,2013-03-07 16:54:00
12:14 PM,35.8,28.6,75,30.33,10.0,NW,11.5,16.1,N/A,,Overcast,310,2013-03-07 17:14:00
12:35 PM,36.7,28.8,73,30.33,10.0,NNW,9.2,-,N/A,,Overcast,340,2013-03-07 17:35:00
12:54 PM,36.3,28.2,72,30.33,10.0,NNW,8.1,-,N/A,,Overcast,330,2013-03-07 17:54:00
1:14 PM,36.1,27.5,71,30.32,10.0,North,9.2,-,N/A,,Overcast,350,2013-03-07 18:14:00
1:35 PM,36.7,27.5,69,30.32,10.0,NNW,9.2,-,N/A,,Overcast,330,2013-03-07 18:35:00
1:54 PM,36.3,27.0,69,30.32,10.0,North,8.1,-,N/A,,Overcast,350,2013-03-07 18:54:00
2:15 PM,36.3,27.0,69,30.32,10.0,North,4.6,-,N/A,,Overcast,350,2013-03-07 19:15:00
2:34 PM,36.0,26.6,69,30.32,10.0,NW,8.1,-,N/A,,Overcast,310,2013-03-07 19:34:00
2:54 PM,35.6,26.6,70,30.33,10.0,NW,6.9,-,N/A,,Overcast,320,2013-03-07 19:54:00
3:14 PM,35.2,25.7,68,30.34,10.0,NNW,9.2,-,N/A,,Overcast,330,2013-03-07 20:14:00
3:34 PM,36.0,24.3,63,30.34,10.0,NW,8.1,-,N/A,,Overcast,320,2013-03-07 20:34:00
3:55 PM,36.0,24.6,63,30.35,10.0,NW,8.1,-,N/A,,Overcast,320,2013-03-07 20:55:00
4:14 PM,35.6,24.3,63,30.35,10.0,NW,9.2,-,N/A,,Overcast,310,2013-03-07 21:14:00
4:34 PM,35.1,24.1,64,30.35,10.0,NNW,6.9,-,N/A,,Overcast,330,2013-03-07 21:34:00
4:55 PM,34.9,23.7,64,30.36,10.0,North,6.9,-,N/A,,Overcast,350,2013-03-07 21:55:00
5:14 PM,34.7,23.2,63,30.35,10.0,North,8.1,-,N/A,,Overcast,350,2013-03-07 22:14:00
5:34 PM,34.7,23.2,63,30.35,10.0,NNW,4.6,-,N/A,,Overcast,330,2013-03-07 22:34:00
5:54 PM,34.5,23.7,65,30.36,10.0,NNW,5.8,-,N/A,,Overcast,340,2013-03-07 22:54:00
6:14 PM,34.2,23.9,66,30.37,10.0,NW,6.9,-,N/A,,Overcast,320,2013-03-07 23:14:00
6:35 PM,34.0,23.4,65,30.38,10.0,NW,6.9,-,N/A,,Overcast,320,2013-03-07 23:35:00
6:54 PM,34.0,23.5,66,30.38,10.0,NW,6.9,-,N/A,,Overcast,320,2013-03-07 23:54:00
8:34 PM,33.3,21.0,61,30.40,10.0,Calm,Calm,-,N/A,,Overcast,0,2013-03-08 01:34:00
8:55 PM,33.3,20.8,60,30.41,10.0,NW,4.6,-,N/A,,Overcast,310,2013-03-08 01:55:00
9:14 PM,33.3,20.8,60,30.40,10.0,NW,3.5,-,N/A,,Overcast,320,2013-03-08 02:14:00
9:34 PM,33.1,19.9,59,30.41,10.0,NW,3.5,-,N/A,,Overcast,320,2013-03-08 02:34:00
9:55 PM,33.1,19.8,58,30.41,10.0,NW,3.5,-,N/A,,Overcast,310,2013-03-08 02:55:00
10:14 PM,32.9,19.4,58,30.41,10.0,NNW,4.6,-,N/A,,Overcast,330,2013-03-08 03:14:00
10:34 PM,32.5,19.8,59,30.41,10.0,Calm,Calm,-,N/A,,Overcast,0,2013-03-08 03:34:00
10:55 PM,32.0,19.9,61,30.41,10.0,Calm,Calm,-,N/A,,Mostly Cloudy,0,2013-03-08 03:55:00
11:14 PM,31.5,20.1,63,30.41,10.0,Calm,Calm,-,N/A,,Scattered Clouds,0,2013-03-08 04:14:00
11:34 PM,30.7,20.1,65,30.41,10.0,Calm,Calm,-,N/A,,Clear,0,2013-03-08 04:34:00
11:55 PM,30.6,20.3,66,30.41,10.0,Calm,Calm,-,N/A,,Clear,0,2013-03-08 04:55:00